Time,TemperatureF,DewpointF,PressureIn,WindDirection,WindDirectionDegrees,WindSpeedMPH,WindSpeedGustMPH,Humidity,HourlyPrecipIn,Conditions,Clouds,dailyrainin,SoftwareType,DateUTC
2013-05-28 00:03:00,61.0,58.0,-100.00,ESE,120,2.0,9.0,88,0.00,,,-99.99,,2013-05-28 04:03:00,
2013-05-28 00:13:00,62.0,58.0,-100.00,SE,130,2.0,6.0,87,0.00,,,-99.99,,2013-05-28 04:13:00,
2013-05-28 00:22:00,62.0,58.0,-100.00,ESE,120,0.0,3.0,86,0.00,,,-99.99,,2013-05-28 04:22:00,
2013-05-28 00:33:00,62.0,58.0,-100.00,ENE,75,0.0,2.0,86,0.00,,,-99.99,,2013-05-28 04:33:00,
2013-05-28 00:43:00,62.0,58.0,-100.00,East,100,0.0,2.0,86,0.00,,,-99.99,,2013-05-28 04:43:00,
2013-05-28 00:52:00,61.0,58.0,-100.00,NE,50,1.0,3.0,87,0.00,,,-99.99,,2013-05-28 04:52:00,
2013-05-28 01:02:00,60.0,58.0,-100.00,NW,320,4.0,6.0,91,0.00,,,-99.99,,2013-05-28 05:02:00,
2013-05-28 01:12:00,61.0,58.0,-100.00,North,5,4.0,7.0,90,0.00,,,-99.99,,2013-05-28 05:12:00,
2013-05-28 01:22:00,61.0,58.0,-100.00,SE,125,2.0,5.0,90,0.00,,,-99.99,,2013-05-28 05:22:00,
2013-05-28 01:33:00,61.0,58.0,-100.00,ESE,110,2.0,3.0,89,0.00,,,-99.99,,2013-05-28 05:33:00,
2013-05-28 01:42:00,61.0,58.0,-100.00,East,100,0.0,3.0,89,0.00,,,-99.99,,2013-05-28 05:42:00,
2013-05-28 01:52:00,61.0,58.0,-100.00,SE,125,0.0,2.0,89,0.00,,,-99.99,,2013-05-28 05:52:00,
2013-05-28 02:02:00,60.0,58.0,-100.00,SE,125,1.0,3.0,89,0.00,,,-99.99,,2013-05-28 06:02:00,
2013-05-28 02:12:00,60.0,57.0,-100.00,SE,125,1.0,4.0,89,0.00,,,-99.99,,2013-05-28 06:12:00,
2013-05-28 02:22:00,60.0,57.0,-100.00,SE,130,1.0,3.0,90,0.00,,,-99.99,,2013-05-28 06:22:00,
2013-05-28 02:32:00,60.0,57.0,-100.00,SE,125,1.0,2.0,90,0.00,,,-99.99,,2013-05-28 06:32:00,
2013-05-28 02:42:00,60.0,57.0,-100.00,ESE,120,1.0,2.0,90,0.00,,,-99.99,,2013-05-28 06:42:00,
2013-05-28 02:51:00,60.0,58.0,-100.00,SE,130,0.0,2.0,90,0.00,,,-99.99,,2013-05-28 06:51:00,
2013-05-28 03:02:00,61.0,58.0,-100.00,South,170,0.0,1.0,90,0.00,,,-99.99,,2013-05-28 07:02:00,
2013-05-28 03:11:00,61.0,58.0,-100.00,SSE,150,1.0,3.0,88,0.00,,,-99.99,,2013-05-28 07:11:00,
2013-05-28 03:21:00,62.0,58.0,-100.00,South,170,4.0,6.0,86,0.00,,,-99.99,,2013-05-28 07:21:00,
2013-05-28 03:32:00,63.0,58.0,-100.00,South,180,4.0,7.0,85,0.00,,,-99.99,,2013-05-28 07:32:00,
2013-05-28 03:42:00,64.0,59.0,-100.00,SSW,195,7.0,11.0,84,0.00,,,-99.99,,2013-05-28 07:42:00,
2013-05-28 03:52:00,65.0,60.0,-100.00,SSW,210,7.0,15.0,81,0.00,,,-99.99,,2013-05-28 07:52:00,
2013-05-28 04:02:00,66.0,60.0,-100.00,SSW,210,6.0,16.0,81,0.00,,,-99.99,,2013-05-28 08:02:00,
2013-05-28 04:12:00,66.0,60.0,-100.00,SW,215,7.0,12.0,81,0.00,,,-99.99,,2013-05-28 08:12:00,
2013-05-28 04:22:00,66.0,60.0,-100.00,SSW,200,6.0,11.0,82,0.00,,,-99.99,,2013-05-28 08:22:00,
2013-05-28 04:32:00,66.0,60.0,-100.00,SW,215,6.0,10.0,82,0.00,,,-99.99,,2013-05-28 08:32:00,
2013-05-28 04:42:00,66.0,60.0,-100.00,SSW,210,6.0,12.0,82,0.00,,,-99.99,,2013-05-28 08:42:00,
2013-05-28 04:51:00,66.0,60.0,-100.00,SW,220,6.0,9.0,82,0.00,,,-99.99,,2013-05-28 08:51:00,
2013-05-28 05:01:00,66.0,60.0,-100.00,SSW,210,6.0,11.0,82,0.00,,,-99.99,,2013-05-28 09:01:00,
2013-05-28 05:11:00,66.0,60.0,-100.00,SSW,195,6.0,9.0,82,0.00,,,-99.99,,2013-05-28 09:11:00,
2013-05-28 05:21:00,66.0,60.0,-100.00,SW,215,6.0,9.0,82,0.00,,,-99.99,,2013-05-28 09:21:00,
2013-05-28 05:33:00,65.0,60.0,-100.00,South,190,6.0,9.0,83,0.00,,,-99.99,,2013-05-28 09:33:00,
2013-05-28 05:43:00,65.0,60.0,-100.00,South,185,4.0,6.0,84,0.00,,,-99.99,,2013-05-28 09:43:00,
2013-05-28 05:53:00,66.0,61.0,-100.00,SSW,210,4.0,7.0,83,0.00,,,-99.99,,2013-05-28 09:53:00,
2013-05-28 06:03:00,66.0,61.0,-100.00,SSW,200,2.0,6.0,83,0.00,,,-99.99,,2013-05-28 10:03:00,
2013-05-28 06:12:00,66.0,61.0,-100.00,South,190,3.0,6.0,83,0.00,,,-99.99,,2013-05-28 10:12:00,
2013-05-28 06:23:00,66.0,61.0,-100.00,SSW,210,2.0,7.0,84,0.00,,,-99.99,,2013-05-28 10:23:00,
2013-05-28 06:32:00,65.0,61.0,-100.00,NW,325,0.0,3.0,88,0.00,,,-99.99,,2013-05-28 10:32:00,
2013-05-28 06:42:00,65.0,61.0,-100.00,North,10,0.0,0.0,89,0.00,,,-99.99,,2013-05-28 10:42:00,
2013-05-28 06:53:00,64.0,61.0,-100.00,SSE,160,0.0,0.0,89,0.00,,,-99.99,,2013-05-28 10:53:00,
2013-05-28 07:02:00,64.0,61.0,-100.00,SSE,160,0.0,0.0,89,0.00,,,-99.99,,2013-05-28 11:02:00,
2013-05-28 07:11:00,65.0,61.0,-100.00,SE,135,1.0,3.0,88,0.00,,,-99.99,,2013-05-28 11:11:00,
2013-05-28 07:22:00,65.0,61.0,-100.00,SSE,160,0.0,3.0,89,0.00,,,-99.99,,2013-05-28 11:22:00,
2013-05-28 07:32:00,68.0,61.0,-100.00,South,175,9.0,15.0,79,0.00,,,-99.99,,2013-05-28 11:32:00,
2013-05-28 07:42:00,68.0,61.0,-100.00,South,180,5.0,11.0,78,0.00,,,-99.99,,2013-05-28 11:42:00,
2013-05-28 07:52:00,67.0,61.0,-100.00,SE,145,3.0,6.0,81,0.00,,,-99.99,,2013-05-28 11:52:00,
2013-05-28 08:02:00,67.0,62.0,-100.00,SE,125,3.0,6.0,82,0.00,,,-99.99,,2013-05-28 12:02:00,
2013-05-28 08:11:00,67.0,62.0,-100.00,SSE,150,2.0,7.0,82,0.00,,,-99.99,,2013-05-28 12:11:00,
2013-05-28 08:21:00,67.0,62.0,-100.00,SE,135,3.0,7.0,83,0.00,,,-99.99,,2013-05-28 12:21:00,
2013-05-28 08:32:00,68.0,62.0,-100.00,SSE,150,4.0,7.0,82,0.00,,,-99.99,,2013-05-28 12:32:00,
2013-05-28 08:42:00,68.0,62.0,-100.00,South,180,6.0,9.0,81,0.00,,,-99.99,,2013-05-28 12:42:00,
2013-05-28 08:52:00,69.0,63.0,-100.00,South,170,5.0,9.0,80,0.00,,,-99.99,,2013-05-28 12:52:00,
2013-05-28 09:01:00,70.0,63.0,-100.00,South,180,6.0,12.0,79,0.00,,,-99.99,,2013-05-28 13:01:00,
2013-05-28 09:11:00,71.0,63.0,-100.00,South,190,8.0,14.0,76,0.00,,,-99.99,,2013-05-28 13:11:00,
2013-05-28 09:21:00,71.0,63.0,-100.00,South,190,7.0,13.0,76,0.00,,,-99.99,,2013-05-28 13:21:00,
2013-05-28 09:32:00,71.0,63.0,-100.00,South,190,9.0,16.0,74,0.00,,,-99.99,,2013-05-28 13:32:00,
2013-05-28 09:42:00,71.0,63.0,-100.00,SSW,200,12.0,19.0,74,0.00,,,-99.99,,2013-05-28 13:42:00,
2013-05-28 09:52:00,71.0,63.0,-100.00,SSW,200,12.0,19.0,74,0.00,,,-99.99,,2013-05-28 13:52:00,
2013-05-28 10:02:00,73.0,63.0,-100.00,SSW,195,11.0,16.0,72,0.00,,,-99.99,,2013-05-28 14:02:00,
2013-05-28 10:11:00,73.0,64.0,-100.00,SSW,195,11.0,18.0,72,0.00,,,-99.99,,2013-05-28 14:11:00,
2013-05-28 10:21:00,75.0,64.0,-100.00,SSW,200,10.0,17.0,69,0.00,,,-99.99,,2013-05-28 14:21:00,
2013-05-28 10:32:00,74.0,64.0,-100.00,SSW,205,10.0,24.0,70,0.00,,,-99.99,,2013-05-28 14:32:00,
2013-05-28 10:42:00,75.0,64.0,-100.00,SSW,205,11.0,20.0,68,0.00,,,-99.99,,2013-05-28 14:42:00,
2013-05-28 10:52:00,76.0,65.0,-100.00,SW,215,9.0,18.0,69,0.00,,,-99.99,,2013-05-28 14:52:00,
2013-05-28 11:01:00,76.0,65.0,-100.00,SSW,205,15.0,19.0,68,0.00,,,-99.99,,2013-05-28 15:01:00,
2013-05-28 11:11:00,76.0,66.0,-100.00,SW,215,13.0,23.0,69,0.00,,,-99.99,,2013-05-28 15:11:00,
2013-05-28 11:21:00,77.0,66.0,-100.00,SW,220,11.0,22.0,68,0.00,,,-99.99,,2013-05-28 15:21:00,
2013-05-28 11:33:00,77.0,66.0,-100.00,SSW,210,12.0,21.0,68,0.00,,,-99.99,,2013-05-28 15:33:00,
2013-05-28 11:43:00,78.0,66.0,-100.00,SSW,205,10.0,18.0,67,0.00,,,-99.99,,2013-05-28 15:43:00,
2013-05-28 11:52:00,78.0,67.0,-100.00,SSW,195,12.0,19.0,68,0.00,,,-99.99,,2013-05-28 15:52:00,
2013-05-28 12:03:00,78.0,65.0,-100.00,SSW,205,14.0,22.0,65,0.00,,,-99.99,,2013-05-28 16:03:00,
2013-05-28 12:13:00,78.0,66.0,-100.00,SSW,195,14.0,22.0,66,0.00,,,-99.99,,2013-05-28 16:13:00,
2013-05-28 12:22:00,79.0,68.0,-100.00,SW,220,8.0,21.0,68,0.00,,,-99.99,,2013-05-28 16:22:00,
2013-05-28 12:33:00,79.0,66.0,-100.00,SSW,200,14.0,21.0,65,0.00,,,-99.99,,2013-05-28 16:33:00,
2013-05-28 12:42:00,78.0,66.0,-100.00,SSW,200,11.0,24.0,65,0.00,,,-99.99,,2013-05-28 16:42:00,
2013-05-28 12:52:00,78.0,66.0,-100.00,SSW,200,11.0,24.0,65,0.00,,,-99.99,,2013-05-28 16:52:00,
2013-05-28 13:02:00,80.0,66.0,-100.00,SSW,210,11.0,22.0,64,0.00,,,-99.99,,2013-05-28 17:02:00,
2013-05-28 13:12:00,79.0,66.0,-100.00,SW,225,14.0,22.0,63,0.00,,,-99.99,,2013-05-28 17:12:00,
2013-05-28 13:22:00,79.0,65.0,-100.00,SSW,205,15.0,24.0,62,0.00,,,-99.99,,2013-05-28 17:22:00,
2013-05-28 13:32:00,79.0,66.0,-100.00,SSW,205,12.0,21.0,63,0.00,,,-99.99,,2013-05-28 17:32:00,
2013-05-28 13:42:00,79.0,65.0,-100.00,SSW,200,14.0,25.0,62,0.00,,,-99.99,,2013-05-28 17:42:00,
2013-05-28 13:51:00,79.0,65.0,-100.00,SSW,205,19.0,27.0,61,0.00,,,-99.99,,2013-05-28 17:51:00,
2013-05-28 14:01:00,81.0,66.0,-100.00,SW,215,17.0,27.0,60,0.00,,,-99.99,,2013-05-28 18:01:00,
2013-05-28 14:11:00,81.0,66.0,-100.00,SSW,205,11.0,27.0,60,0.00,,,-99.99,,2013-05-28 18:11:00,
2013-05-28 14:21:00,80.0,65.0,-100.00,SW,215,16.0,27.0,60,0.00,,,-99.99,,2013-05-28 18:21:00,
2013-05-28 14:32:00,80.0,65.0,-100.00,SW,215,16.0,27.0,60,0.00,,,-99.99,,2013-05-28 18:32:00,
2013-05-28 14:42:00,81.0,66.0,-100.00,SSW,195,12.0,25.0,60,0.00,,,-99.99,,2013-05-28 18:42:00,
2013-05-28 14:52:00,81.0,66.0,-100.00,SSW,205,12.0,26.0,61,0.00,,,-99.99,,2013-05-28 18:52:00,
2013-05-28 15:01:00,81.0,66.0,-100.00,SSW,205,12.0,26.0,61,0.00,,,-99.99,,2013-05-28 19:01:00,
2013-05-28 15:11:00,80.0,64.0,-100.00,South,190,17.0,24.0,58,0.00,,,-99.99,,2013-05-28 19:11:00,
2013-05-28 15:21:00,80.0,65.0,-100.00,SSW,200,14.0,26.0,60,0.00,,,-99.99,,2013-05-28 19:21:00,
2013-05-28 15:32:00,80.0,65.0,-100.00,SSW,195,14.0,22.0,58,0.00,,,-99.99,,2013-05-28 19:32:00,
2013-05-28 15:42:00,81.0,65.0,-100.00,SW,220,9.0,25.0,58,0.00,,,-99.99,,2013-05-28 19:42:00,
2013-05-28 15:52:00,81.0,64.0,-100.00,SW,220,11.0,19.0,56,0.00,,,-99.99,,2013-05-28 19:52:00,
2013-05-28 16:02:00,81.0,64.0,-100.00,SW,220,12.0,24.0,57,0.00,,,-99.99,,2013-05-28 20:02:00,
2013-05-28 16:11:00,80.0,64.0,-100.00,SW,215,11.0,19.0,58,0.00,,,-99.99,,2013-05-28 20:11:00,
2013-05-28 16:22:00,81.0,65.0,-100.00,SSW,210,10.0,16.0,58,0.00,,,-99.99,,2013-05-28 20:22:00,
2013-05-28 16:32:00,81.0,63.0,-100.00,SSW,195,17.0,24.0,55,0.00,,,-99.99,,2013-05-28 20:32:00,
2013-05-28 16:42:00,81.0,64.0,-100.00,SW,215,12.0,25.0,55,0.00,,,-99.99,,2013-05-28 20:42:00,
2013-05-28 16:52:00,81.0,64.0,-100.00,SSW,200,15.0,22.0,55,0.00,,,-99.99,,2013-05-28 20:52:00,
2013-05-28 17:02:00,81.0,64.0,-100.00,SSW,205,9.0,22.0,56,0.00,,,-99.99,,2013-05-28 21:02:00,
2013-05-28 17:11:00,80.0,64.0,-100.00,SSW,200,11.0,19.0,57,0.00,,,-99.99,,2013-05-28 21:11:00,
2013-05-28 17:21:00,81.0,64.0,-100.00,SSW,205,9.0,16.0,56,0.00,,,-99.99,,2013-05-28 21:21:00,
2013-05-28 17:33:00,81.0,64.0,-100.00,SW,215,9.0,20.0,56,0.00,,,-99.99,,2013-05-28 21:33:00,
2013-05-28 17:43:00,81.0,63.0,-100.00,SSW,210,14.0,22.0,54,0.00,,,-99.99,,2013-05-28 21:43:00,
2013-05-28 17:53:00,81.0,65.0,-100.00,SSW,210,9.0,19.0,57,0.00,,,-99.99,,2013-05-28 21:53:00,
2013-05-28 18:02:00,82.0,63.0,-100.00,South,185,14.0,22.0,53,0.00,,,-99.99,,2013-05-28 22:02:00,
2013-05-28 18:12:00,82.0,62.0,-100.00,SSW,205,14.0,21.0,52,0.00,,,-99.99,,2013-05-28 22:12:00,
2013-05-28 18:22:00,82.0,63.0,-100.00,South,190,13.0,23.0,53,0.00,,,-99.99,,2013-05-28 22:22:00,
2013-05-28 18:33:00,81.0,63.0,-100.00,SSW,195,16.0,29.0,53,0.00,,,-99.99,,2013-05-28 22:33:00,
2013-05-28 18:42:00,81.0,63.0,-100.00,SSW,210,11.0,17.0,53,0.00,,,-99.99,,2013-05-28 22:42:00,
2013-05-28 18:52:00,81.0,63.0,-100.00,SW,215,11.0,17.0,53,0.00,,,-99.99,,2013-05-28 22:52:00,
2013-05-28 19:02:00,81.0,63.0,-100.00,SW,215,12.0,23.0,54,0.00,,,-99.99,,2013-05-28 23:02:00,
2013-05-28 19:11:00,80.0,63.0,-100.00,SSW,200,10.0,14.0,55,0.00,,,-99.99,,2013-05-28 23:11:00,
2013-05-28 19:22:00,80.0,63.0,-100.00,SSW,195,9.0,18.0,55,0.00,,,-99.99,,2013-05-28 23:22:00,
2013-05-28 19:32:00,80.0,63.0,-100.00,SSW,195,9.0,18.0,55,0.00,,,-99.99,,2013-05-28 23:32:00,
2013-05-28 19:42:00,80.0,63.0,-100.00,SSW,195,9.0,14.0,56,0.00,,,-99.99,,2013-05-28 23:42:00,
2013-05-28 19:52:00,80.0,63.0,-100.00,SSW,200,9.0,16.0,56,0.00,,,-99.99,,2013-05-28 23:52:00,
2013-05-28 20:02:00,80.0,62.0,-100.00,SSW,200,9.0,16.0,55,0.00,,,-99.99,,2013-05-29 00:02:00,
2013-05-28 20:11:00,79.0,62.0,-100.00,SSW,195,8.0,14.0,55,0.00,,,-99.99,,2013-05-29 00:11:00,
2013-05-28 20:21:00,79.0,62.0,-100.00,South,190,8.0,13.0,55,0.00,,,-99.99,,2013-05-29 00:21:00,
2013-05-28 20:32:00,79.0,62.0,-100.00,SSW,195,7.0,12.0,56,0.00,,,-99.99,,2013-05-29 00:32:00,
2013-05-28 20:42:00,79.0,62.0,-100.00,South,190,6.0,12.0,56,0.00,,,-99.99,,2013-05-29 00:42:00,
2013-05-28 20:52:00,78.0,62.0,-100.00,SSW,195,7.0,12.0,56,0.00,,,-99.99,,2013-05-29 00:52:00,
2013-05-28 21:01:00,78.0,62.0,-100.00,SSW,195,7.0,12.0,56,0.00,,,-99.99,,2013-05-29 01:01:00,
2013-05-28 21:11:00,78.0,62.0,-100.00,South,190,6.0,9.0,57,0.00,,,-99.99,,2013-05-29 01:11:00,
2013-05-28 21:22:00,77.0,61.0,-100.00,SSE,165,6.0,12.0,58,0.00,,,-99.99,,2013-05-29 01:22:00,
2013-05-28 21:32:00,77.0,61.0,-100.00,South,190,6.0,10.0,58,0.00,,,-99.99,,2013-05-29 01:32:00,
2013-05-28 21:42:00,77.0,61.0,-100.00,South,175,6.0,12.0,58,0.00,,,-99.99,,2013-05-29 01:42:00,
2013-05-28 21:52:00,76.0,60.0,-100.00,South,180,6.0,12.0,58,0.00,,,-99.99,,2013-05-29 01:52:00,
2013-05-28 22:02:00,76.0,60.0,-100.00,South,190,6.0,10.0,58,0.00,,,-99.99,,2013-05-29 02:02:00,
2013-05-28 22:12:00,76.0,60.0,-100.00,South,170,9.0,12.0,58,0.00,,,-99.99,,2013-05-29 02:12:00,
2013-05-28 22:21:00,76.0,61.0,-100.00,South,190,6.0,11.0,59,0.00,,,-99.99,,2013-05-29 02:21:00,
2013-05-28 22:32:00,75.0,61.0,-100.00,SSW,195,5.0,10.0,60,0.00,,,-99.99,,2013-05-29 02:32:00,
2013-05-28 22:42:00,75.0,61.0,-100.00,South,175,7.0,10.0,61,0.00,,,-99.99,,2013-05-29 02:42:00,
2013-05-28 22:51:00,74.0,61.0,-100.00,South,190,6.0,9.0,61,0.00,,,-99.99,,2013-05-29 02:51:00,
2013-05-28 23:02:00,74.0,60.0,-100.00,South,175,6.0,12.0,61,0.00,,,-99.99,,2013-05-29 03:02:00,
2013-05-28 23:12:00,74.0,60.0,-100.00,SSE,160,6.0,13.0,61,0.00,,,-99.99,,2013-05-29 03:12:00,
2013-05-28 23:21:00,74.0,60.0,-100.00,South,185,6.0,11.0,61,0.00,,,-99.99,,2013-05-29 03:21:00,
2013-05-28 23:33:00,74.0,60.0,-100.00,South,180,6.0,9.0,61,0.00,,,-99.99,,2013-05-29 03:33:00,
2013-05-28 23:43:00,74.0,60.0,-100.00,SSW,195,7.0,11.0,61,0.00,,,-99.99,,2013-05-29 03:43:00,
2013-05-28 23:53:00,74.0,60.0,-100.00,South,190,9.0,14.0,61,0.00,,,-99.99,,2013-05-29 03:53:00,